Location: ??????????
(41.2581°N, 22.8006°E)
Time: 12:18:59
(UTC+00:00)

GEOS 3 Rocket - Pass Details

Date: 16 March 2026
Orbit: 767 x 846 km, 115.0° (Epoch: 14 April)

Event Time Altitude Azimuth Distance (km) Brightness Sun altitude
Rises 01:05:17 0° 55° (NE) 3,407 7.8 -38.4°
Reaches altitude 10° 01:08:45 10° 78° (ENE) 2,461 6.7 -37.9°
Enters shadow 01:11:35 15° 110° (ESE) 2,128 6.0 -37.5°
